"Time","Temp","Dewpoint","Humidity","Pressure","Direction","Speed","Gust","Precip","PrecipRate"
"00:04:58","62.5","59.5","90","30.19","290","0","0","0.00","0.00"
"00:09:59","62.4","59.4","90","30.19","290","0","0","0.00","0.00"
"00:14:58","62.2","59.2","90.2","30.19","290","0","0","0.00","0.00"
"00:19:59","62","59.3","91","30.19","290","0","0","0.00","0.00"
"00:24:57","61.9","59.2","91","30.19","290","0","0","0.00","0.00"
"00:29:58","61.8","59.1","91","30.19","290","0","0","0.00","0.00"
"00:34:56","61.7","59","91","30.19","290","0","0","0.00","0.00"
"00:39:58","61.6","58.9","91","30.19","290","0","0","0.00","0.00"
"00:44:57","61.5","59.1","91.8","30.19","290","0","0","0.00","0.00"
"00:49:59","61.4","59.1","91.8","30.19","290","0","0","0.00","0.00"
"00:54:57","61.3","59","92","30.19","290","0","0","0.00","0.00"
"00:59:59","61.2","58.9","92","30.19","290","0","0","0.00","0.00"
"01:04:56","61.1","58.8","92","30.19","290","0","0","0.00","0.00"
"01:09:56","60.9","58.6","92","30.19","290","0","0","0.00","0.00"
"01:14:56","60.8","58.5","92","30.19","290","0","0","0.00","0.00"
"01:19:58","60.7","58.4","92","30.19","290","0","0","0.00","0.00"
"01:24:56","60.7","58.6","92.7","30.19","290","0","0","0.00","0.00"
"01:29:57","60.7","58.7","93","30.19","290","0","0","0.00","0.00"
"01:34:59","60.7","58.6","92.5","30.19","290","0","0","0.00","0.00"
"01:39:57","60.7","58.4","92","30.19","291","0","0","0.00","0.00"
"01:44:56","60.5","58.2","92","30.19","290","0","0","0.00","0.00"
"01:49:58","60.4","58.3","92.8","30.19","291","0","0","0.00","0.00"
"01:54:59","60.2","58.2","93","30.19","290","0","0","0.00","0.00"
"01:59:57","60.2","58.2","93","30.19","290","0","0","0.00","0.00"
"02:04:59","60.1","58.1","93","30.19","290","0","0","0.00","0.00"
"02:09:58","60","58","93","30.19","290","0","0","0.00","0.00"
"02:14:58","59.9","57.9","93","30.19","290","0","0","0.00","0.00"
"02:19:59","59.8","57.8","93","30.18","290","0","0","0.00","0.00"
"02:24:57","59.7","57.7","93","30.18","290","0","0","0.00","0.00"
"02:29:59","59.6","57.6","93","30.19","290","0","0","0.00","0.00"
"02:34:56","59.5","57.5","93","30.19","290","0","0","0.00","0.00"
"02:39:58","59.4","57.6","93.7","30.19","290","0","0","0.00","0.00"
"02:44:56","59.3","57.6","94","30.19","290","0","0","0.00","0.00"
"02:49:57","59.3","57.6","94","30.19","290","0","0","0.00","0.00"
"02:54:59","59.2","57.5","94","30.19","290","0","2.4","0.00","0.00"
"02:59:56","59.2","57.6","94.2","30.19","290","0.7","2.4","0.00","0.00"
"03:04:59","59.5","58.1","95","30.19","290","0.2","1.2","0.00","0.00"
"03:09:59","59.5","58.1","95","30.19","290","0","1.2","0.00","0.00"
"03:14:58","59.5","58","94.7","30.19","290","0.6","2.4","0.00","0.00"
"03:19:59","59.6","58.2","95","30.19","290","0","1.2","0.00","0.00"
"03:24:56","59.6","58","94.2","30.19","290","0","0","0.00","0.00"
"03:29:58","59.5","57.8","94","30.19","290","0","0","0.00","0.00"
"03:34:59","59.5","58","94.8","30.19","290","0","0","0.00","0.00"
"03:39:57","59.7","58.3","95","30.19","290","0","0","0.00","0.00"
"03:44:56","59.7","58.3","95","30.19","290","0","0","0.00","0.00"
"03:49:58","59.7","58.1","94.3","30.18","291","0","0","0.00","0.00"
"03:54:57","59.7","58","94","30.18","290","0","0","0.00","0.00"
"03:59:56","59.6","57.9","94","30.18","290","0","0","0.00","0.00"
"04:04:58","59.5","57.8","94","30.18","290","0","0","0.00","0.00"
"04:09:57","59.4","57.7","94","30.18","290","0","0","0.00","0.00"
"04:14:57","59.3","57.6","94","30.18","290","0","0","0.00","0.00"
"04:19:58","59.3","57.6","94","30.18","290","0","0","0.00","0.00"
"04:24:56","59.1","57.4","94","30.18","290","0","0","0.00","0.00"
"04:29:57","59","57.6","95","30.18","290","0","0","0.00","0.00"
"04:34:58","58.9","57.5","95","30.18","290","0","0","0.00","0.00"
"04:39:59","58.9","57.5","95","30.18","290","0","0","0.00","0.00"
"04:44:57","58.8","57.4","95","30.18","290","0","0","0.00","0.00"
"04:49:58","58.7","57.3","95","30.18","290","0","0","0.00","0.00"
"04:54:58","58.6","57.2","95","30.18","290","0","0","0.00","0.00"
"04:59:55","58.5","57.1","95","30.18","290","0","0","0.00","0.00"
"05:04:57","58.4","57","95","30.18","290","0","0","0.00","0.00"
"05:09:56","58.4","57","95","30.18","290","0","0","0.00","0.00"
"05:14:59","58.4","57","95","30.19","290","0","0","0.00","0.00"
"05:19:59","58.3","56.9","95","30.19","290","0","0","0.00","0.00"
"05:24:56","58.3","56.9","95","30.19","290","0","0","0.00","0.00"
"05:29:57","58.2","56.8","95","30.19","290","0","0","0.00","0.00"
"05:34:58","58.3","57.1","95.7","30.19","290","0.3","2.4","0.00","0.00"
"05:39:58","58.3","57.2","96","30.19","290","0","0","0.00","0.00"
"05:44:56","58.3","57.2","95.9","30.20","290","0","0","0.00","0.00"
"05:49:57","58.2","56.8","95","30.20","290","0","0","0.00","0.00"
"05:54:57","58.1","56.9","95.6","30.20","290","0","0","0.00","0.00"
"05:59:59","58","56.9","96","30.20","290","0","0","0.00","0.00"
"06:04:56","57.9","56.8","95.8","30.20","290","0","0","0.00","0.00"
"06:09:56","57.7","56.3","95","30.20","290","0","0","0.00","0.00"
"06:14:59","57.6","56.2","95","30.20","290","0","0","0.00","0.00"
"06:19:56","57.5","56.1","95.1","30.20","290","0","0","0.00","0.00"
"06:24:57","57.5","56.4","96","30.20","290","0","0","0.00","0.00"
"06:29:58","57.4","56.3","96","30.21","290","0","0","0.00","0.00"
"06:34:59","57.5","56.4","96","30.21","290","0","0","0.00","0.00"
"06:39:56","57.4","56.3","96","30.21","53","0","0","0.00","0.00"
"06:44:58","57.4","56.3","96","30.21","53","0","0","0.00","0.00"
"06:49:58","57.4","56.3","96","30.21","53","0","0","0.00","0.00"
"06:54:59","57.5","56.4","96","30.21","53","0","0","0.00","0.00"
"06:59:56","57.5","56.4","96","30.22","53","0","0","0.00","0.00"
"07:04:57","57.6","56.5","96","30.22","47","0.1","1.2","0.00","0.00"
"07:09:57","57.8","56.7","96","30.22","47","0.1","1.2","0.00","0.00"
"07:14:59","58","56.9","96","30.22","47","0.1","1.2","0.00","0.00"
"07:19:59","58.3","57.2","96","30.22","124","0","0","0.00","0.00"
"07:24:59","58.6","57.5","96","30.22","41","0","0","0.00","0.00"
"07:29:56","58.9","57.8","96","30.22","41","0","0","0.00","0.00"
"07:34:56","59.2","58.1","96","30.22","41","0","0","0.00","0.00"
"07:39:57","59.6","58.4","95.6","30.22","41","0","0","0.00","0.00"
"07:44:59","59.9","58.5","95","30.22","41","0","0","0.00","0.00"
"07:49:59","60.3","58.8","94.8","30.22","41","0","1.2","0.00","0.00"
"07:54:59","60.7","58.9","93.7","30.22","40","0","0","0.00","0.00"
"07:59:57","61.2","59","92.2","30.22","13","1.1","3.6","0.00","0.00"
"08:04:58","61.8","59.1","90.9","30.22","6","2","4.8","0.00","0.00"
"08:09:57","62.5","59","88.7","30.22","355","1.8","4.8","0.00","0.00"
"08:14:59","63","59.1","87","30.22","339","2.5","4.8","0.00","0.00"
"08:19:59","63.6","59","85.2","30.22","337","1.8","4.8","0.00","0.00"
"08:24:59","64","59.3","84.5","30.22","338","1.1","6","0.00","0.00"
"08:29:59","64.5","59.1","82.8","30.22","339","2.7","6","0.00","0.00"
"08:34:59","64.9","59.5","82.5","30.22","339","1.3","4.8","0.00","0.00"
"08:39:56","65.4","59.5","81.1","30.22","342","2.4","6","0.00","0.00"
"08:44:57","65.8","59.5","80.1","30.22","266","0.9","4.6","0.00","0.00"
"08:49:57","66.2","59.6","79.5","30.22","310","1.5","4.8","0.00","0.00"
"08:54:57","66.6","59.8","78.7","30.22","312","1.3","3.6","0.00","0.00"
"08:59:58","67.1","59.8","77.5","30.22","312","0.7","3.5","0.00","0.00"
"09:04:58","67.7","60","76.4","30.22","312","0.7","4.8","0.00","0.00"
"09:09:58","68.2","60.3","75.9","30.22","312","0.6","3.6","0.00","0.00"
"09:14:57","68.9","60.7","75.3","30.22","312","0.1","1.2","0.00","0.00"
"09:19:56","69.4","61","74.5","30.22","312","1","4.8","0.00","0.00"
"09:24:56","69.6","60.8","73.6","30.22","313","1","3.5","0.00","0.00"
"09:29:57","70","61.2","73.7","30.22","314","0.5","3.6","0.00","0.00"
"09:34:56","70.3","61","72.5","30.22","330","1.4","6","0.00","0.00"
"09:39:57","70.7","61.2","72","30.22","342","1.2","6","0.00","0.00"
"09:44:57","70.8","60.6","70.4","30.22","346","2.6","4.8","0.00","0.00"
"09:49:58","70.6","60.6","70.8","30.22","346","1.9","4.8","0.00","0.00"
"09:54:58","70.8","60.9","71","30.22","338","0.4","4.6","0.00","0.00"
"09:59:58","71.4","61.2","70.4","30.22","200","1","4.8","0.00","0.00"
"10:04:59","71.6","60.7","68.4","30.22","344","1.4","6","0.00","0.00"
"10:09:58","72","61.6","69.8","30.22","319","0","0","0.00","0.00"
"10:14:56","72.7","61.8","68.7","30.22","334","1","4.8","0.00","0.00"
"10:19:56","73.2","62.4","69.1","30.22","335","0.6","3.6","0.00","0.00"
"10:24:56","73.6","61.7","66.4","30.22","332","2","4.8","0.00","0.00"
"10:29:58","73.7","61.9","66.6","30.22","329","0.8","4.8","0.00","0.00"
"10:34:59","73.8","61.4","65.3","30.22","342","2.1","6","0.00","0.00"
"10:39:59","74","61.7","65.3","30.22","350","1.8","3.6","0.00","0.00"
"10:44:56","74.4","61.5","64.3","30.23","347","2","3.6","0.00","0.00"
"10:49:56","74.8","61.6","63.6","30.23","346","1.2","3.6","0.00","0.00"
"10:54:56","75.2","61.5","62.5","30.23","343","1.8","4.8","0.00","0.00"
"10:59:57","75.2","60.9","61.3","30.23","333","2.3","4.8","0.00","0.00"
"11:04:58","75.4","61.3","61.7","30.23","264","1.2","4.6","0.00","0.00"
"11:09:58","76.2","62","61.5","30.23","336","1.2","6","0.00","0.00"
"11:14:56","76.8","62.1","60.5","30.23","335","1.5","4.6","0.00","0.00"
"11:19:57","78","63.1","60.4","30.23","233","1","3.6","0.00","0.00"
"11:24:57","78.5","63.1","59.3","30.23","182","1","3.6","0.00","0.00"
"11:29:56","78.8","63.4","59.1","30.24","180","1.1","3.6","0.00","0.00"
"11:34:57","78.5","62.2","57.3","30.24","217","1.1","6","0.00","0.00"
"11:39:59","78","61.9","57.8","30.24","287","1.2","4.8","0.00","0.00"
"11:44:58","78","61.9","57.8","30.24","334","2.1","6","0.00","0.00"
"11:49:59","78.7","62.7","58.2","30.23","343","1.2","3.6","0.00","0.00"
"11:54:58","79.2","62.8","57.4","30.23","236","2.9","6","0.00","0.00"
"11:59:57","79.1","62.7","57.2","30.23","219","3.1","6","0.00","0.00"
"12:04:59","79.6","62.8","56.6","30.23","283","3","7.2","0.00","0.00"
"12:09:56","79.6","61.4","53.9","30.23","210","2","4.6","0.00","0.00"
"12:14:59","78.5","60.1","53.3","30.23","211","0.6","2.4","0.00","0.00"
"12:19:56","78.3","61","55.4","30.23","216","1","4.8","0.00","0.00"
"12:24:58","79.3","60.2","52.2","30.23","206","1.8","4.6","0.00","0.00"
"12:29:56","79","60.5","53.2","30.23","196","0.7","2.4","0.00","0.00"
"12:34:58","78.8","60.7","54","30.22","196","1","4.8","0.00","0.00"
"12:39:56","78.8","61","54.5","30.22","196","1","3.6","0.00","0.00"
"12:44:59","78.8","61.3","55.2","30.22","244","0.5","3.6","0.00","0.00"
"12:49:57","79.2","61.5","54.8","30.21","235","1.5","4.8","0.00","0.00"
"12:54:59","80","61.4","53.2","30.21","196","1.4","4.8","0.00","0.00"
"12:59:58","80.8","62","52.8","30.21","144","1.5","3.6","0.00","0.00"
"13:04:57","81","61.7","52","30.21","126","1.4","4.8","0.00","0.00"
"13:09:58","81.8","61.7","50.8","30.21","153","1.5","4.6","0.00","0.00"
"13:14:59","81.4","60.8","49.6","30.21","153","2.8","7.2","0.00","0.00"
"13:19:57","81.1","60.6","49.9","30.21","160","1.6","3.6","0.00","0.00"
"13:24:59","81.6","61.5","50.6","30.21","165","0.8","3.6","0.00","0.00"
"13:29:58","82.4","62.2","50.5","30.21","164","1.6","4.8","0.00","0.00"
"13:34:56","81.9","61.1","49.3","30.20","160","1","4.8","0.00","0.00"
"13:39:59","82.8","62","49.5","30.20","163","1.8","6","0.00","0.00"
"13:44:58","82.5","61.6","49.3","30.20","212","3.3","7.2","0.00","0.00"
"13:49:56","81.4","59.9","48.2","30.19","198","2.7","5.8","0.00","0.00"
"13:54:59","81.5","60","48.1","30.19","235","2","8.4","0.00","0.00"
"13:59:57","80.7","59.9","49.2","30.19","233","1","4.6","0.00","0.00"
"14:04:56","80.9","60","49","30.19","213","0.6","2.4","0.00","0.00"
"14:09:57","81.2","60.1","48.8","30.19","170","1.1","4.8","0.00","0.00"
"14:14:56","81.4","60.1","48.5","30.19","186","2.8","6","0.00","0.00"
"14:19:58","80.6","60.2","49.8","30.18","209","2","4.8","0.00","0.00"
"14:24:56","80.6","59.4","48.6","30.18","209","0.7","2.4","0.00","0.00"
"14:29:59","80.9","60","49.1","30.19","204","2.5","6","0.00","0.00"
"14:34:58","81.7","59.8","47.6","30.19","258","2.1","5.8","0.00","0.00"
"14:39:56","82.3","60.4","47.6","30.19","234","2.8","6","0.00","0.00"
"14:44:59","83.2","60.8","46.8","30.19","186","3.4","6","0.00","0.00"
"14:49:57","83.2","60.4","46.3","30.18","236","4.4","8.4","0.00","0.00"
"14:54:59","82.9","60.1","46.2","30.18","243","2.4","8.1","0.00","0.00"
"14:59:58","83.3","60.8","46.8","30.18","215","2.1","4.8","0.00","0.00"
"15:04:56","83.8","61.2","46.8","30.17","229","2.7","8.4","0.00","0.00"
"15:09:58","83.9","60.7","45.6","30.17","186","3.3","8.4","0.00","0.00"
"15:14:58","82.9","60.1","46.2","30.17","198","2.7","7.2","0.00","0.00"
"15:19:56","82.1","60.1","47.4","30.17","254","2.1","6","0.00","0.00"
"15:24:58","81.9","59.9","47.5","30.17","227","1.9","6","0.00","0.00"
"15:29:57","82.4","61.5","49.3","30.17","244","2","6","0.00","0.00"
"15:34:59","83.1","61","47.3","30.17","227","3.2","7.2","0.00","0.00"
"15:39:58","83.3","61.2","47.3","30.17","170","3.1","6","0.00","0.00"
"15:44:57","83.2","60.9","47","30.17","191","3.4","6","0.00","0.00"
"15:49:59","82.6","60.7","47.7","30.16","179","2.2","6","0.00","0.00"
"15:54:58","82.5","60.8","48","30.16","171","2.3","4.8","0.00","0.00"
"15:59:57","82.3","60.8","48.3","30.16","171","0.3","3.6","0.00","0.00"
"16:04:56","83","61.6","48.6","30.16","199","1.9","7.2","0.00","0.00"
"16:09:57","83.6","61.4","47.3","30.16","199","2.6","6","0.00","0.00"
"16:14:57","83.5","61.5","47.7","30.16","201","2.9","7.2","0.00","0.00"
"16:19:59","83.6","61.6","47.7","30.16","204","3.4","6.9","0.00","0.00"
"16:24:58","83.1","60.9","47.1","30.16","188","1.4","5.8","0.00","0.00"
"16:29:56","83.7","62.3","48.7","30.16","187","2.8","8.4","0.00","0.00"
"16:34:56","84","62.1","47.9","30.15","180","3.5","8.1","0.00","0.00"
"16:39:56","83.9","62.1","48","30.15","181","2.3","4.8","0.00","0.00"
"16:44:58","83.6","61.6","47.6","30.15","190","2.3","3.6","0.00","0.00"
"16:49:57","83.3","61.8","48.3","30.15","259","2","4.8","0.00","0.00"
"16:54:56","83.4","62.1","48.8","30.15","298","1.5","3.6","0.00","0.00"
"16:59:59","83.6","61.5","47.4","30.15","183","1.3","3.6","0.00","0.00"
"17:04:57","83.3","60.8","46.8","30.14","153","1.3","3.6","0.00","0.00"
"17:09:59","83","60.8","47.2","30.14","145","1.1","2.4","0.00","0.00"
"17:14:58","83.4","61.9","48.4","30.14","181","1.8","6","0.00","0.00"
"17:19:56","83.3","61.9","48.5","30.14","190","3.7","7.2","0.00","0.00"
"17:24:58","82.5","61.4","48.9","30.14","185","3.7","8.4","0.00","0.00"
"17:29:57","81.9","61.3","49.6","30.14","190","1.8","6.9","0.00","0.00"
"17:34:59","82.3","62.1","50.5","30.14","184","2.1","4.8","0.00","0.00"
"17:39:58","82.9","62.1","49.5","30.14","156","2.5","7.2","0.00","0.00"
"17:44:57","82.9","62","49.3","30.14","195","4.2","8.4","0.00","0.00"
"17:49:59","82.6","62","50","30.14","193","3.3","6.9","0.00","0.00"
"17:54:58","82.3","61.7","49.9","30.14","189","3.7","7.2","0.00","0.00"
"17:59:57","82","61.9","50.7","30.14","188","2.5","6.9","0.00","0.00"
"18:04:55","82.2","62.5","51.4","30.14","189","2.4","8.4","0.00","0.00"
"18:09:57","82.1","62.1","51","30.14","205","3.1","8.4","0.00","0.00"
"18:14:57","82.1","62.1","50.9","30.14","172","2.2","6","0.00","0.00"
"18:19:59","81.7","61.7","50.8","30.14","193","3.1","7.2","0.00","0.00"
"18:24:58","81.5","62.1","51.8","30.14","187","2.1","4.8","0.00","0.00"
"18:29:58","81.4","61.9","51.7","30.14","173","3.5","7.2","0.00","0.00"
"18:34:57","81.1","61.9","52.2","30.14","157","3","7.2","0.00","0.00"
"18:39:56","80.7","62","52.9","30.14","174","2.9","7.2","0.00","0.00"
"18:44:57","80.6","62.3","53.9","30.14","203","2.9","9.6","0.00","0.00"
"18:49:59","80.4","62.1","54","30.14","177","3.3","8.4","0.00","0.00"
"18:54:56","80.2","62","54","30.14","162","3.3","8.4","0.00","0.00"
"18:59:59","80","62.1","54.3","30.14","159","2.2","7.2","0.00","0.00"
"19:04:57","79.9","62.3","55","30.14","143","3.6","7.2","0.00","0.00"
"19:09:58","79.7","62.1","55","30.14","138","2.5","6","0.00","0.00"
"19:14:59","79.5","62.2","55.5","30.14","151","3.5","6","0.00","0.00"
"19:19:56","79.2","62.2","56.1","30.14","184","2.3","6","0.00","0.00"
"19:24:58","79","62.2","56.4","30.14","161","2.4","6","0.00","0.00"
"19:29:56","78.9","62.3","56.9","30.14","161","1.9","6","0.00","0.00"
"19:34:57","78.7","62.2","57","30.13","178","1.8","4.8","0.00","0.00"
"19:39:58","78.6","62.1","57","30.13","130","2.6","4.8","0.00","0.00"
"19:44:59","78.5","62.1","57.3","30.14","131","1.4","4.8","0.00","0.00"
"19:49:59","78.3","61.8","57","30.14","146","2.2","6","0.00","0.00"
"19:54:59","78.1","61.7","57.1","30.14","146","1.6","3.6","0.00","0.00"
"19:59:57","77.9","61.6","57.3","30.14","152","2.6","6","0.00","0.00"
"20:04:58","77.7","61.7","58","30.13","147","1.8","6","0.00","0.00"
"20:09:58","77.6","61.9","58.6","30.13","141","1","3.6","0.00","0.00"
"20:14:56","77.4","61.9","59","30.14","102","0.9","2.4","0.00","0.00"
"20:19:56","77.2","62.2","60","30.14","75","0.6","2.4","0.00","0.00"
"20:24:56","76.9","62.2","60.7","30.14","102","1.6","3.6","0.00","0.00"
"20:29:58","76.7","62.2","61","30.14","134","1.2","4.8","0.00","0.00"
"20:34:59","76.5","62","61","30.14","143","0.8","2.4","0.00","0.00"
"20:39:57","76.4","62.3","61.9","30.14","143","0.9","3.6","0.00","0.00"
"20:44:59","76.2","62.7","62.9","30.14","142","0.5","3.6","0.00","0.00"
"20:49:56","76.1","62.9","63.9","30.14","147","1.2","7.2","0.00","0.00"
"20:54:57","75.9","63.1","64.5","30.14","183","1.7","6.9","0.00","0.00"
"20:59:58","75.8","63.2","65","30.14","181","0.6","2.4","0.00","0.00"
"21:04:56","75.6","63.2","65.5","30.14","135","1.2","3.6","0.00","0.00"
"21:09:56","75.5","63.3","66","30.14","128","1.7","3.6","0.00","0.00"
"21:14:59","75.4","63.4","66.4","30.14","131","1","4.8","0.00","0.00"
"21:19:56","75.3","63.6","67","30.14","130","2.3","8.4","0.00","0.00"
"21:24:58","75.3","63.6","67","30.14","135","2.2","6","0.00","0.00"
"21:29:59","75.2","63.6","67.2","30.14","147","2.2","4.8","0.00","0.00"
"21:34:57","75","63.7","68","30.14","140","1.6","4.8","0.00","0.00"
"21:39:59","74.9","63.6","68","30.14","157","0.6","4.6","0.00","0.00"
"21:44:57","74.6","63.5","68.3","30.15","157","0.9","3.6","0.00","0.00"
"21:49:58","74.4","63.6","69","30.15","157","0.7","2.4","0.00","0.00"
"21:54:55","74.2","63.4","69.1","30.15","145","1.4","4.8","0.00","0.00"
"21:59:56","74","63.6","69.8","30.15","132","0.7","3.5","0.00","0.00"
"22:04:58","73.9","63.4","69.9","30.15","132","0.4","2.4","0.00","0.00"
"22:09:58","73.7","63.3","70","30.15","132","0.3","2.4","0.00","0.00"
"22:14:57","73.5","63.4","70.8","30.15","132","1.1","3.6","0.00","0.00"
"22:19:58","73.3","63.3","71","30.15","136","0.8","4.8","0.00","0.00"
"22:24:56","73.3","63.6","71.7","30.15","149","0.7","4.6","0.00","0.00"
"22:29:57","73","63.4","72","30.16","149","0.6","2.4","0.00","0.00"
"22:34:59","72.9","63.4","72.4","30.16","149","0.4","2.4","0.00","0.00"
"22:39:57","72.8","63.6","73","30.16","149","0.7","2.4","0.00","0.00"
"22:44:59","72.6","63.4","73","30.16","149","0.7","2.4","0.00","0.00"
"22:49:57","72.5","63.4","73","30.16","149","0.5","2.4","0.00","0.00"
"22:54:58","72.3","63.2","73","30.16","149","0.6","2.4","0.00","0.00"
"22:59:56","72.1","63.2","73.4","30.16","149","0.2","1.2","0.00","0.00"
"23:04:57","72","63.3","74","30.16","149","0.4","2.4","0.00","0.00"
"23:09:57","71.8","63.1","74","30.16","149","0.3","2.4","0.00","0.00"
"23:14:56","71.7","63","74.2","30.16","149","0.3","2.4","0.00","0.00"
"23:19:58","71.4","63.1","74.8","30.15","149","0","0","0.00","0.00"
"23:24:56","71.2","62.9","75","30.15","149","0","0","0.00","0.00"
"23:29:58","70.9","63","75.9","30.15","149","0","0","0.00","0.00"
"23:34:59","70.4","62.7","76.8","30.15","149","0","0","0.00","0.00"
"23:39:57","69.9","62.4","77.2","30.15","149","0","0","0.00","0.00"
"23:44:59","69.4","62.4","78.5","30.15","149","0","0","0.00","0.00"
"23:49:56","69","62.4","79.5","30.15","149","0","0","0.00","0.00"
